Tracking 20093 objects as of 16-Dec-2019
HD Live streaming from Space Station
objects crossing your sky now

COSMOS 2251 DEB

Track COSMOS 2251 DEB now!
10-day predictions


NORAD ID: 34478
Int'l Code: 1993-036TX
Perigee: 662.1 km
Apogee: 802.0 km
Inclination: 74.1 °
Period: 99.3 minutes
Semi major axis: 7103 km
RCS: 0.0197 m2 (small)
Launch date: June 16, 1993
Source: Commonwealth of Independent States (former USSR) (CIS)
Launch site: PLESETSK MISSILE AND SPACE COMPLEX (PKMTR)

Note: This is SATELLITE DEBRIS
aabbcc
Your satellite tracking list
Your tracking list is empty




NASA's NSSDC Master Catalog

Two Line Element Set (TLE):
1 34478U 93036TX  19349.85029007 +.00000628 +00000-0 +15912-3 0  9991
2 34478 074.0628 236.0798 0098516 296.8430 189.9068 14.50229557569732
Source of the keplerian elements: AFSPC